Location: Aldenham
(51.6667°N, 0.3500°W)
Time: 17:32:42
(UTC+00:00)

Explorer 7 - Pass Details

Date: 17 February 2026
Orbit: 430 x 542 km, 50.2° (Epoch: 8 March)

Event Time Altitude Azimuth Distance (km) Brightness Sun altitude
Rises 15:14:30 0° 212° (SSW) 2,427 11.7 15.7°
Reaches altitude 10° 15:16:56 10° 195° (SSW) 1,578 10.4 15.4°
Maximum altitude 15:19:38 21° 146° (SE) 1,101 8.6 15.1°
Drops below altitude 10° 15:22:26 10° 96° (E) 1,631 8.9 14.8°
Sets 15:25:00 0° 80° (E) 2,537 9.7 14.5°
